Printer-friendly version

IAU Minor Planet Center

Minor Planet Center

MPEC 2005-T95 : 2005 TZ51

The following Minor Planet Electronic Circular may be linked-to from your own Web pages, but must not otherwise be redistributed electronically.


Read MPEC 2005-T94 Read MPEC 2005-T96


M.P.E.C. 2005-T95                                Issued 2005 Oct. 14, 13:21 UT

     The Minor Planet Electronic Circulars contain information on unusual
         minor planets and routine data on comets.  They are published
   on behalf of Commission 20 of the International Astronomical Union by the
          Minor Planet Center, Smithsonian Astrophysical Observatory,
                          Cambridge, MA 02138, U.S.A.

                  Supported in part by the Brinson Foundation
             Prepared using the Tamkin Foundation Computer Network

                              MPC@CFA.HARVARD.EDU
          URL http://cfa-www.harvard.edu/iau/mpc.html  ISSN 1523-6714

                                   2005 TZ51

Observations:
     K05T51Z* C2005 10 13.39813 07 06 27.60 +41 06 41.6          19.0 R ET095699
     K05T51Z  C2005 10 13.42014 07 06 32.90 +41 06 21.9                 ET095699
     K05T51Z  C2005 10 13.44215 07 06 37.97 +41 06 05.5                 ET095699
     K05T51Z  C2005 10 13.46418 07 06 43.19 +41 05 46.3                 ET095699
     K05T51Z 3C2005 10 13.54412 07 07 02.65 +41 04 39.4                 ET095F65
     K05T51Z 3C2005 10 13.54523 07 07 02.88 +41 04 38.5                 ET095F65
     K05T51Z 3C2005 10 13.54622 07 07 03.10 +41 04 37.8                 ET095F65
     K05T51Z  C2005 10 13.94794 07 08 39.15 +40 58 36.1          18.8 V ET095198
     K05T51Z  C2005 10 13.94847 07 08 39.27 +40 58 35.6          18.8 V ET095198
     K05T51Z  C2005 10 13.94900 07 08 39.41 +40 58 35.1          18.8 V ET095198
     K05T51Z  C2005 10 13.95007 07 08 39.63 +40 58 34.1          18.8 V ET095198
     K05T51Z 5C2005 10 14.35868 07 10 16.74 +40 52 37.0          18.7 R ET095673
     K05T51Z 5C2005 10 14.36123 07 10 17.29 +40 52 35.1                 ET095673
     K05T51Z  C2005 10 14.36595 07 10 18.42 +40 52 32.2          18.8 R ET095854
     K05T51Z  C2005 10 14.36704 07 10 18.34 +40 52 33.0          19.3 R ET095734
     K05T51Z 5C2005 10 14.36887 07 10 19.07 +40 52 28.6                 ET095673
     K05T51Z  C2005 10 14.36982 07 10 19.30 +40 52 28.6          18.8 R ET095854
     K05T51Z 5C2005 10 14.37396 07 10 20.29 +40 52 24.2                 ET095673
     K05T51Z  C2005 10 14.37637 07 10 20.56 +40 52 23.9          19.1 R ET095734
     K05T51Z  C2005 10 14.37784 07 10 20.88 +40 52 22.4          19.0 R ET095734
     K05T51Z  C2005 10 14.37931 07 10 21.25 +40 52 20.9          19.0 R ET095734
     K05T51Z  C2005 10 14.43483 07 10 34.28 +40 51 33.2          18.9 R ET095699
     K05T51Z  C2005 10 14.43849 07 10 35.17 +40 51 30.0                 ET095699
     K05T51Z  C2005 10 14.44215 07 10 35.99 +40 51 26.6                 ET095699
     K05T51Z  C2005 10 14.44582 07 10 36.82 +40 51 24.1                 ET095699

Observer details:
198 Wildberg.  Observer R. Apitzsch.  0.35-m f/4.2 reflector + CCD.
673 Table Mountain Observatory, Wrightwood.  Observer J. Young.  0.6-m f/16
    Cassegrain + CCD.
699 Lowell Observatory-LONEOS.  Observers B. A. Skiff, M. E. Van Ness.  0.59-m
    LONEOS Schmidt + CCD.
734 Farpoint Observatory.  Observer G. Hug.  Measurer B. Martin.  0.7-m
    reflector + CCD.
854 Sabino Canyon Observatory, Tucson.  Observer J. E. McGaha.  0.36-m f/10.0
    Schmidt-Cassegrain + CCD.
F65 Haleakala-Faulkes Telescope North.  Observers S. M. Fendius, A. F. Lewis,
    M. J. Fitch, E. S. Jennings, A. S. E. Allen, C. J. Barry, A. D. Taylor.
    2.0-m Ritchey-Chretien + CCD.

Orbital elements:
2005 TZ51
Epoch 2005 Sept. 27.0 TT = JDT 2453640.5                MPC
M 355.63756              (2000.0)            P               Q
n   0.27760770     Peri.  124.33190     +0.67510778     -0.71483610
a   2.3272786      Node   282.09594     +0.60069153     +0.67612157
e   0.4782297      Incl.   10.74597     +0.42825130     +0.17851882
P   3.55           H   17.9           G   0.15
From 25 observations 2005 Oct. 13-14.

Ephemeris:
2005 TZ51                a,e,i = 2.33, 0.48, 11                  q = 1.2143
Date    TT    R. A. (2000) Decl.     Delta      r     Elong.  Phase     V
2005 10 07    06 39.41   +42 26.2    0.600    1.216    95.7    54.9    19.2
2005 10 17    07 20.40   +40 11.7    0.581    1.215    97.3    54.4    19.1
2005 10 27    07 54.03   +37 09.9    0.564    1.224    99.9    53.1    19.0
2005 11 06    08 19.83   +33 41.3    0.549    1.242   103.8    50.8    19.0
2005 11 16    08 37.86   +30 01.7    0.534    1.269   109.2    47.4    18.8
2005 11 26    08 48.32   +26 22.8    0.521    1.303   116.1    42.9    18.7
2005 12 06    08 51.22   +22 53.0    0.510    1.344   124.8    37.0    18.6
2005 12 16    08 46.99   +19 38.6    0.506    1.390   135.2    30.0    18.4
2005 12 26    08 36.69   +16 45.6    0.513    1.441   146.9    21.9    18.3
2006 01 05    08 22.36   +14 20.5    0.534    1.495   159.4    13.4    18.2
2006 01 15    08 07.04   +12 28.2    0.574    1.552   169.9     6.4    18.1
2006 01 25    07 53.59   +11 09.7    0.634    1.611   168.4     7.0    18.5
2006 02 04    07 43.95   +10 21.0    0.715    1.671   158.3    12.6    19.0
2006 02 14    07 38.92   +09 54.4    0.814    1.732   147.9    17.6    19.6
2006 02 24    07 38.29   +09 41.3    0.929    1.793   138.2    21.6    20.1
2006 03 06    07 41.45   +09 34.8    1.059    1.854   129.4    24.4    20.5
2006 03 16    07 47.72   +09 29.1    1.201    1.915   121.2    26.4    20.9
2006 03 26    07 56.37   +09 20.6    1.352    1.976   113.7    27.5    21.3
2006 04 05    08 06.87   +09 07.0    1.510    2.036   106.6    28.1    21.6
2006 04 15    08 18.74   +08 46.8    1.675    2.095    99.9    28.1    21.9

Timothy B. Spahr             (C) Copyright 2005 MPC           M.P.E.C. 2005-T95

Read MPEC 2005-T94 Read MPEC 2005-T96


Our Web policy. Index to the CBAT/MPC/ICQ pages.


Valid HTML 4.01!